FENGYUN 1C DEB

Satellite information

Favourite Embed

Satellite Type and Status

DEBRISIN ORBIT

Key statistics

Satellite FENGYUN 1C DEB at a glance.

Uptime

9495

Days in orbit

Revolutions

≈ 13.8

Per day

Orbit

SSO

Sun Synchronous Orbit

Inclination

99.7

Latest

Satellite identification and parameters

Extended collection of information and parameters for FENGYUN 1C DEB.

Object identification

Identified? True

Debris? True

Object name: FENGYUN 1C DEB

International designator: 1999-025ADM

Object number (NORAD): 30398

Object ID (CCSDS): 30398

Country: PEOPLES REPUBLIC OF CHINA (PRC)

Current information (Y/N): Y

RCS size: SMALL

Orbital parameters

Period: 104.466 minutes

Inclination: 99.7325 deg

SMA: 7347.567 km

Apoapsis: 1097.0 km

Periapsis: 841.863 km

RAAN: 16.9656 deg

Eccentricy: 0.017362

Argument of periapsis: 150.6477 deg

Mean anomaly: 230.4452 deg

Mean motion: 13.78438636 rev/day

Mean motion (dot): 0.0000052 rev/day2

B* drag term: 0.00050021 1/REarth

Two-line elements (TLE)

Creation date: May 6, 2025, 3:54 a.m.

Reference frame: TEME

Reference center: EARTH

Epoch: May 5, 2025, 11:04 p.m. UTC

TLE line 0: 0 FENGYUN 1C DEB

TLE line 1: 1 30398U 99025ADM 25125.96140830 .00000520 00000-0 50021-3 0 9992

TLE line 2: 2 30398 99.7325 16.9656 0173620 150.6477 230.4452 13.78438636917154

Live tracking on map

Real-time ground track for satellite FENGYUN 1C DEB.

In-orbit conjunctions

A list of the most updated potential collisions computed for object FENGYUN 1C DEB.

Target Orbit TCA Probability of collision Miss distance Type
CZ-6A DEB LEO 2024-09-28 13:34:32 0.001439516 229.0 (m) DEBRIS
FENGYUN 1C DEB SSO 2024-09-09 23:57:41 0.0001273533 242.0 (m) DEBRIS
THORAD AGENA D DEB SSO 2024-08-31 12:56:48 0.0002054556 46.0 (m) DEBRIS

Associated space launch

Chinese polar orbiting meteorological satellite

FENGYUN 1C DEB was lifted into orbit during the mission ‘Long March 4B | Feng Yun 1C’, on board a Long March 4B space rocket.

The launch took place on May 10, 1999, 1:33 a.m. from Launch Complex 7.

For more information about the launch, click the button.

Launch to space Long March 4B | Feng Yun 1C
Long March 4B | Feng Yun 1C

Agency: N/A

Status: Launch Successful

Launch date: May 10, 1999, 1:33 a.m. UTC

Rocket: Long March 4B

Launch pad: Launch Complex 7

Location: Taiyuan Satellite Launch Center, People's Republic of China

...

Latest news about this satellite

There are no fresh news available about this satellite. Check back as we update our databases every day.


Newsletter sign-up

Weekly statistics, charts and insights to help you stay on top of the space industry.